Location: Góry Miechowskie
(50.3599°N, 20.1803°E)
Time: 20:12:14
(UTC+00:00)

Courier 1B - Pass Details

Date: 14 September 2024
Orbit: 962 x 1208 km, 28.3° (Epoch: 13 October)

Event Time Altitude Azimuth Distance (km) Brightness Sun altitude
Rises 15:58:20 0° 236° (WSW) 4,028 11.9 8.1°
Reaches altitude 10° 16:03:26 10° 208° (SSW) 3,107 10.7 7.3°
Maximum altitude 16:06:01 12° 188° (S) 2,975 10.2 6.9°
Drops below altitude 10° 16:08:38 10° 168° (SSE) 3,132 10.1 6.5°
Sets 16:13:50 0° 140° (SE) 4,103 10.4 5.7°
